Weather observations for the past three days for
Leesburg International Airport
Imperial (Metric)
Date Time (edt) Wind (mph) Vis. (mi.) Weather Sky Cond. Temperature (ºF) Relative Humidity Wind Chill (°F) Heat Index (°F) Pressure Precipitation (in)
Air Dwpt 6 hour altimeter (in) sea level (mb) 1 hr 3 hr 6 hr
Max. Min.
24 08:53 W 3 10.00 Fair CLR 79 73.9 85% 83 29.99 1015.3
24 07:53 SW 3 10.00 Fair CLR 77 73 78.1 75 88% 78 29.98 1015.1
24 06:53 SW 3 10.00 Fair CLR 75 73 94% 73 29.97 1014.6
24 05:53 Calm 10.00 Fair CLR 75.9 73 91% 76 29.97 1014.7
24 04:53 S 6 10.00 Fair CLR 75.9 73 91% 76 29.96 1014.5
24 03:53 S 8 10.00 Fair CLR 77 73 88% 78 29.98 1015.0
24 02:53 SW 5 10.00 Fair CLR 77 73.9 90% 78 29.99 1015.4
24 01:53 S 8 10.00 Fair CLR 78.1 73.9 81 78.1 87% 81 30 1015.7
24 00:53 S 6 10.00 Fair CLR 78.1 73.9 87% 81 30 1015.7
23 23:53 S 5 10.00 Fair CLR 79 73.9 85% 83 29.99 1015.5
23 22:53 S 7 10.00 Fair CLR 79 73 82% 82 29.98 1015.2
23 21:53 S 8 10.00 Fair CLR 80.1 73 79% 84 29.98 1015.0
23 20:53 SW 3 10.00 Fair CLR 80.1 73.9 82% 85 29.97 1014.7
23 19:53 S 3 10.00 Fair CLR 81 73.9 82.9 75 79% 86 29.96 1014.3 0.12
23 18:53 S 9 10.00 Fair CLR 82 75 79% 89 29.97 1014.6
23 17:53 SE 8 10.00 Fair CLR 80.1 75 85% 85 29.97 1014.9
23 16:53 E 6 10.00 Fair CLR 81 73.9 79% 86 29.98 1015.0 0.12
23 15:53 Calm 10.00 Light Rain FEW037 BKN080 OVC110 77 73.9 90% 78 29.97 1014.9 0.1
23 14:53 Calm 4.00 Light Rain Fog/Mist FEW090 BKN110 75 71.1 88% 75 30.02 1016.4 0.02
23 13:53 W 12 G 30 10.00 Thunderstorm FEW033 SCT048 BKN075 77 73 89.1 77 88% 78 30.05 1017.3
23 12:53 SE 7 10.00 Partly Cloudy SCT018 88 75.9 68% 99 30.02 1016.5
23 11:53 S 7 10.00 Partly Cloudy SCT018 86 77 75% 97 30.03 1016.6
23 10:53 Vrbl 6 10.00 Fair CLR 84.9 78.1 80% 97 30.03 1016.9
23 09:53 S 7 10.00 Fair CLR 82 77 85% 90 30.04 1017.3
23 08:53 Calm 10.00 Fair CLR 80.1 75.9 87% 85 30.04 1017.0
23 07:53 Calm 10.00 Fair CLR 79 75.9 80.1 78.1 90% 83 30.02 1016.4
23 06:53 SW 3 10.00 Fair CLR 78.1 75.9 93% 81 30.01 1016.2
23 05:53 Calm 10.00 Fair CLR 79 75.9 90% 83 30.01 1016.1
23 04:53 S 5 10.00 Fair CLR 79 75.9 90% 83 30.02 1016.3
23 03:53 S 6 10.00 Mostly Cloudy BKN090 BKN120 79 75.9 90% 83 30.02 1016.5
23 02:53 SW 3 10.00 Overcast OVC100 79 75.9 90% 83 30.02 1016.5
23 01:53 S 3 10.00 A Few Clouds FEW090 79 75 84 79 88% 83 30.04 1017.2
23 00:53 S 6 9.00 Fair CLR 79 75 88% 83 30.05 1017.3
22 23:53 S 8 10.00 Partly Cloudy FEW065 FEW085 SCT110 80.1 75.9 87% 85 30.06 1017.6
22 22:53 SW 6 10.00 Overcast SCT070 OVC100 80.1 75.9 87% 85 30.06 1017.7
22 21:53 SW 7 10.00 Partly Cloudy SCT075 80.1 75 85% 85 30.04 1017.0
22 20:53 SW 6 10.00 A Few Clouds FEW120 81 73.9 79% 86 30.04 1017.2
22 19:53 SW 12 10.00 A Few Clouds FEW100 84 75 93.9 84 74% 92 30.03 1016.7
22 18:53 S 10 10.00 Overcast BKN060 OVC085 87.1 73.9 65% 95 30.01 1016.1
22 17:53 SE 10 10.00 Fair CLR 87.1 75 67% 97 30 1015.6
22 16:53 S 15 G 28 10.00 Partly Cloudy SCT060 SCT100 87.1 75 67% 97 30 1015.7
22 15:53 SE 6 10.00 Fair CLR 93 73 52% 102 30 1015.8
22 14:53 SE 7 10.00 Fair CLR 91.9 73.9 56% 102 30.02 1016.5
22 13:53 SW 3 10.00 A Few Clouds FEW043 FEW050 91 73.9 91.9 79 57% 101 30.04 1017.2
22 12:53 Vrbl 5 10.00 Fair CLR 89.1 77 68% 102 30.08 1018.3
22 11:53 S 7 10.00 Fair CLR 86 79 80% 100 30.1 1019.2
22 10:53 S 6 10.00 Fair CLR 82.9 78.1 85% 93 30.11 1019.6
22 09:53 S 5 10.00 Fair CLR 82 78.1 88% 91 30.1 1019.0
22 08:53 S 6 10.00 A Few Clouds FEW120 81 79 94% 89 30.09 1018.7
22 07:53 SE 3 10.00 Fair CLR 79 78.1 79 75.9 97% 83 30.08 1018.4 0.01
22 06:53 Calm 10.00 Fair CLR 75.9 75 97% 75 30.08 1018.3
22 05:53 Calm 4.00 Fog/Mist CLR 75.9 75 97% 75 30.06 1017.7
22 04:53 Calm 9.00 A Few Clouds FEW110 77 75.9 96% 78 30.05 1017.5 0.01
22 03:53 NE 3 10.00 Partly Cloudy SCT120 77 75.9 96% 78 30.06 1017.8
22 02:53 Calm 10.00 Mostly Cloudy BKN110 77 75.9 96% 78 30.06 1017.8 0.01
22 01:53 Calm 7.00 Light Rain BKN100 OVC110 77 75.9 84 75.9 96% 78 30.08 1018.4 0.05 0.41
22 00:53 W 9 G 20 10.00 Thunderstorm Light Rain SCT008 OVC014 75.9 75 97% 75 30.11 1019.6 0.07
21 23:53 NE 10 10.00 Thunderstorm in Vicinity Light Rain SCT039 BKN049 OVC080 79 78.1 97% 83 30.09 1018.6 0.29
21 22:53 NE 6 10.00 Overcast BKN048 OVC060 82 75.9 82% 89 30.08 1018.5
21 21:53 E 5 10.00 Overcast OVC100 82 75 79% 89 30.07 1018.1
21 20:53 E 6 10.00 Overcast BKN060 OVC095 84 75.9 77% 93 30.05 1017.5
21 19:53 E 5 10.00 Partly Cloudy SCT095 82.9 73.9 89.1 81 74% 89 30.04 1017.0
21 18:53 SE 6 10.00 A Few Clouds FEW100 82.9 73 72% 89 30.03 1016.8
21 17:53 SE 5 10.00 Overcast OVC080 84.9 73.9 70% 92 30.03 1016.8
21 16:53 E 7 10.00 Overcast BKN080 OVC095 87.1 75.9 70% 98 30.04 1017.0
21 15:53 SE 6 10.00 A Few Clouds FEW070 87.1 75.9 70% 98 30.05 1017.4
21 14:53 Calm 10.00 Fair CLR 84.9 75.9 75% 94 30.07 1018.2
21 13:53 E 5 10.00 Partly Cloudy FEW045 SCT055 81 77 84.9 75.9 88% 88 30.09 1018.7 0.12 0.12
21 12:53 E 13 10.00 Mostly Cloudy BKN017 BKN022 BKN045 82 75.9 82% 89 30.1 1019.0
21 11:53 NE 5 10.00 Overcast BKN015 BKN022 OVC040 84 75.9 77% 93 30.1 1019.2
21 10:53 NE 9 10.00 Overcast BKN007 BKN013 OVC017 80.1 75.9 87% 85 30.11 1019.4
21 09:53 NE 10 4.00 Fog/Mist BKN007 OVC019 78.1 75 90% 81 30.1 1019.1
Date Time (edt) Wind (mph) Vis. (mi.) Weather Sky Cond. Air Dwpt Max. Min. Relative Humidity Wind Chill (°F) Heat Index (°F) altimeter (in) sea level (mb) 1 hr 3 hr 6 hr
6 hour
Temperature (ºF) Pressure Precipitation (in)